Погода в Чегеме

Россия / Кабардино-Балкарская Республика     43°34′01″N   43°35′11″E
темп.,
°C
ветер,
м/с
пор.,
м/с
влажн.,
%
обл.,
%
осадки,
мм/ч
давл.,
гПа
погр.,
м
25 мая, ср
ср2500:00+8ююз2294100 3.1 101667
03:00+8ю229494 4.8 101782
06:00+8юз1193100 0.4 101849
09:00+9ю118999 0.9 1020185
12:00+14всв116651 0.4 10191050
15:00+13ссз236746 1.6 10191016
18:00+10з248688 1.4 1021101
21:00+8юз349017 1.4 102352
26 мая, чт
чт2600:00+6зюз338713 0.0 102336
03:00+6зюз32855 0.0 102333
06:00+8зюз237921 0.0 102358
09:00+14всв325562 0.0 10221293
12:00+15всв225861 0.1 10211281
15:00+14в226594 0.1 1021780
18:00+13в127899 0.0 102175
21:00+10юз228822 0.0 102122
27 мая, пт
пт2700:00+9юз32795 0.0 102129
03:00+9юз326894 0.0 102027
06:00+11зюз2266100 0.0 102040
09:00+17св21555 0.0 1019737
12:00+19всв325537 0.0 10191300
15:00+19всв325882 0.0 10181377
18:00+15юз1176100 0.1 101911
21:00+14зюз1178100 0.1 102012
28 мая, сб
сб2800:00+14ююв117872 0.0 102012
03:00+11ююз119011 0.0 101913
06:00+13ююз11800 0.0 101959
09:00+18в33640 0.0 1017881
12:00+20в445728 0.0 10161248
15:00+21в445969 0.0 10151283
18:00+19в237256 0.0 1016443
21:00+14юз22878 0.0 101726
29 мая, вс
вс2900:00+13зюз22860 0.0 101621
03:00+13юз226659 0.0 101527
06:00+15зюз225814 0.0 101534
09:00+20св21575 0.0 1015490
12:00+23св326011 0.0 1015933
15:00+23св326020 0.1 10151133
18:00+21в1278100 0.3 1016161
21:00+17юз2290100 0.6 101715